Regional Weather Roundup
Issued by NWS

Home | Current Version | Previous Version | Text Only | Print | Product List | Glossary Off
Versions: 1 2 3 4 5 6 7 8 9 10 11 12 13 14 15 16 17 18 19 20 21 22 23 24 25 26 27 28 29 30 31 32 33 34 35 36 37 38 39 40 41 42 43 44 45 46 47 48 49 50

000
ASUS43 KMPX 310310
RWRMN
WEATHER ROUNDUP FOR MINNESOTA
NATIONAL WEATHER SERVICE TWIN CITIES/CHANHASSEN MN
1000 PM CDT SUN AUG 30 2015


NOTE: "FAIR" INDICATES FEW OR NO CLOUDS BELOW 12,000 FEET WITH NO
SIGNIFICANT WEATHER AND/OR OBSTRUCTIONS TO VISIBILITY. N/A MEANS
CURRENT SKY AND/OR WEATHER CONDITIONS ARE NOT AVAILABLE.

MNZ060>063-068>070-310400-
   Twin Cities Metro

CITY           SKY/WX    TMP DP  RH WIND       PRES   REMARKS
TWIN CITIES    MOCLDY    72  66  81 S10       29.94R
ST PAUL        CLEAR     68  65  90 SE6       29.94R
CRYSTAL        CLEAR     73  66  78 S8        29.91S
BLAINE         CLEAR     72  68  88 S10       29.92S
LAKEVILLE      CLEAR     64  64 100 CALM      29.95S
EDEN PRAIRIE   CLEAR     70  66  87 S8        29.92F
SOUTH ST PAUL  CLEAR     69  65  84 S5        29.94S
LAKE ELMO      FAIR      68  64  88 S8        29.95F
$$
MNZ001>005-007-008-013>017-022>024-027-028-310400-
   Northwest Minnesota

CITY           SKY/WX    TMP DP  RH WIND       PRES   REMARKS
BEMIDJI        PTCLDY    72  67  85 S9G16     29.81S
HALLOCK        PTCLDY    77  70  78 S16G22    29.64S
ROSEAU         MOCLDY    73  68  83 S12       29.69S
WARROAD        MOCLDY    75  72  88 S12       29.71S
THIEF RVR FALL MOCLDY   N/A N/A N/A S13       29.72S
CROOKSTON      PTCLDY    75  68  78 S17G24    29.71S
FOSSTON        PTCLDY    72  64  78 S12       29.77S
DETROIT LAKES  MOCLDY    72  66  83 S14G20    29.81S
MOORHEAD       PTCLDY    73  68  83 S15       29.75R
PARK RAPIDS      N/A     73  67  81 S12       29.83S
MAHNOMEN       FAIR      73  66  79 S10G16    29.77S
$$
MNZ006-009>011-018-025>026-310400-
   North Central Minnesota

CITY           SKY/WX    TMP DP  RH WIND       PRES   REMARKS
BAUDETTE       MOCLDY    72  68  87 S9        29.74F
FLAG ISLAND    PTCLDY    72  68  88 S15       29.70S
INTL FALLS     MOCLDY    71  67  87 CALM      29.79S
WASKISH        MOCLDY    72  68  88 S10       29.77S
BIG FORK       FAIR      70  66  88 S7        29.84S
LONGVILLE      PTCLDY    70  66  88 S7        29.85S
GRAND RAPIDS     N/A     70  63  78 S14       29.86S
CRANE LAKE     FAIR      63  63 100 CALM      29.84R
ORR            FAIR      70  63  78 S5        29.82R
COOK           CLEAR     72  66  83 S5        29.86R
WALKER         FAIR      72  67  84 S12G17    29.82S
$$
MNZ012-019>021-037-310400-
   Northeast Minnesota

CITY           SKY/WX    TMP DP  RH WIND       PRES   REMARKS
DULUTH         CLEAR     69  64  84 SW9       29.90S
ELY            CLEAR     72  64  78 S7        29.87S
HIBBING        CLEAR     69  65  86 SE5       29.87S
EVELETH        FAIR      68  64  88 S3        29.90R
DULUTH HARBOR  PTCLDY    70  66  88 S5        29.88S
TWO HARBORS    FAIR      72  66  83 W6        29.87S
SILVER BAY     PTCLDY    70  64  83 CALM      29.86F
GRAND MARAIS     N/A     59  56  89 CALM      29.86R
G MARAIS ARPRT FOG       64  63  94 S3        29.91S VSB 3/4
$$
MNZ029>031-032-039>041-046>048-054>057-064-310400-
   West Central Minnesota

CITY           SKY/WX    TMP DP  RH WIND       PRES   REMARKS
FERGUS FALLS   MOCLDY    72  64  78 S13       29.79S
WHEATON        PTCLDY    68  63  83 SE13G18   29.80R
MORRIS         MOCLDY    70  64  83 SE12      29.82S
ALEXANDRIA     PTCLDY    71  65  81 S16       29.87S
ELBOW LAKE     FAIR      70  65  85 S15G21    29.82R
WADENA         MOCLDY    72  64  78 S9        29.84S
GLENWOOD       PTCLDY    70  64  83 S16       29.88S
APPLETON       MOCLDY    72  63  73 S10G17    29.83S
BENSON         PTCLDY    70  64  83 S10       29.85S
ORTONVILLE     PTCLDY    68  63  83 SE8       29.82S
MADISON        MOCLDY    66  61  82 S8        29.84S
WILLMAR        FAIR      70  66  88 SE6       29.90S
$$
MNZ033>034-036-042>043-049>051-058-059-310400-
   Central Minnesota

CITY           SKY/WX    TMP DP  RH WIND       PRES   REMARKS
ST CLOUD       CLEAR     68  66  93 S8        29.90R
SAUK CENTRE    FAIR      67  65  94 SE6       29.88S
PAYNESVILLE    CLEAR     70  67  90 SE9       29.90S
AITKIN         PTCLDY    70  64  83 S8        29.86S
PINE RIVER     PTCLDY    68  66  94 S5        29.89S
BRAINERD       CLEAR     69  65  86 S9        29.87S
STAPLES        FAIR      70  66  88 S9        29.86R
LONG PRAIRIE   MOCLDY    68  64  88 SE8       29.88S
LITTLE FALLS   CLEAR     68  64  88 S7        29.89R
LITCHFIELD     CLEAR     72  68  88 S5        29.91S
BUFFALO        CLEAR     70  65  85 S6        29.93R
MAPLE LAKE     CLEAR     69  67  93 S7        29.92S
$$
MNZ037-044-045-052-053-310400-
   East Central Minnesota

CITY           SKY/WX    TMP DP  RH WIND       PRES   REMARKS
PRINCETON      CLEAR     72  66  83 S6        29.91S
MORA           CLEAR     66  61  82 S5        29.92S
CAMBRIDGE      CLEAR     72  63  73 S7        29.90S
RUSH CITY      PTCLDY    68  65  88 S6        29.91S
MOOSE LAKE     CLEAR     68  64  88 S5        29.88S
HINCKLEY       FAIR      68  66  94 S5        29.91S
CLOQUET        CLEAR     70  63  78 S7        29.90S
MCGREGOR       CLEAR     68  64  88 S7        29.89S
$$
MNZ071>073-080-081-089-090-097-098-310400-
   Southwest Minnesota

CITY           SKY/WX    TMP DP  RH WIND       PRES   REMARKS
MONTEVIDEO     PTCLDY    68  64  88 S10G16    29.87F
GRANITE FALLS  MOCLDY    67  65  93 SE9       29.89S
CANBY          MOCLDY    70  60  71 S10G20    29.86S
MARSHALL       PTCLDY    68  61  77 S14       29.89S
REDWOOD FALLS  CLEAR     67  65  93 S7        29.90R
OLIVIA         CLEAR     68  63  83 S8        29.89S
PIPESTONE      PTCLDY    64  63  94 S13G18    29.93R FOG
WINDOM         CLEAR     68  64  88 S8        29.94S
WORTHINGTON    PTCLDY    64  61  88 S10       29.95R
JACKSON        CLEAR     66  64  94 S12       29.96S
TRACY          PTCLDY    68  65  91 S17G23    29.90R
SLAYTON        CLEAR     64  64 100 S9        29.94R FOG
$$
MNZ065>067-074>077-082>085-091>093-310400-
   South Central Minnesota

CITY           SKY/WX    TMP DP  RH WIND       PRES   REMARKS
MANKATO        CLEAR     66  63  88 S7        29.95S
NEW ULM        CLEAR     66  66 100 S10       29.92S
ST JAMES       CLEAR     68  66  94 S9        29.94F
FAIRMONT       CLEAR     64  59  82 S9        29.95S
GLENCOE        CLEAR     69  67  93 S6        29.92S
FARIBAULT      CLEAR     66  64  94 S5        29.96S
OWATONNA       CLEAR     66  63  88 S6        29.97S
WASECA         CLEAR     63  61  94 S5        29.97S
ALBERT LEA     CLEAR     66  64  94 S6        29.98S
$$
MNZ078>079-086>088-094>096-310400-
   Southeast Minnesota

CITY           SKY/WX    TMP DP  RH WIND       PRES   REMARKS
ROCHESTER      CLEAR     62  61  96 S7        30.00S
RED WING       CLEAR     70  64  83 CALM      29.95S
STANTON        CLEAR     66  63  89 CALM      29.95R
DODGE CENTER   PTCLDY    63  61  94 S7        29.98S FOG
WINONA         CLEAR     66  64  94 CALM      29.98F
PRESTON        CLEAR     62  60  93 S6        30.01S
$$
ABBREVIATIONS USED IN REMARKS
   TC - TEMPERATURES IN CELSIUS
  WCI - WIND CHILL INDEX
   HX - HEAT INDEX
  VSB - VISIBILITY
$$


USA.gov is the U.S. government's official web portal to all federal, state and local government web resources and services.